• In Lithuania
  • List of Countries
  • For 7 days
  • Water Temperature
  • Satellite Maps
  • Weather Map
  • Weather Widgets
  • user-avatar
    Login

    Hourly Weather Disa

    Today, 21 September, Friday

    Time Temperature Precipitation Wind Pressure Humidity
    00:00 +30°C° 0 mm 2 mps 743 mmHg 51%
    01:00 +30°C° 0 mm 2 mps 743 mmHg 52%
    02:00 +30°C° 0 mm 2 mps 743 mmHg 53%
    03:00 +29°C° 0 mm 2 mps 743 mmHg 55%
    04:00 +29°C° 0 mm 2 mps 743 mmHg 56%
    05:00 +28°C° 0 mm 2 mps 743 mmHg 58%
    06:00 +29°C° 0 mm 3 mps 743 mmHg 56%
    07:00 +30°C° 0 mm 3 mps 744 mmHg 54%
    08:00 +32°C° 0 mm 4 mps 744 mmHg 52%
    09:00 +34°C° 0 mm 4 mps 744 mmHg 45%
    10:00 +36°C° 0 mm 4 mps 744 mmHg 38%
    11:00 +38°C° 0 mm 4 mps 744 mmHg 31%
    12:00 +40°C° 0 mm 4 mps 744 mmHg 28%
    13:00 +41°C° 0 mm 4 mps 743 mmHg 25%
    14:00 +42°C° 0 mm 4 mps 742 mmHg 23%
    15:00 +41°C° 0 mm 4 mps 742 mmHg 23%
    16:00 +40°C° 0 mm 3 mps 742 mmHg 24%
    17:00 +40°C° 0 mm 2 mps 741 mmHg 25%
    18:00 +38°C° 0 mm 2 mps 742 mmHg 28%
    19:00 +36°C° 0 mm 2 mps 742 mmHg 32%
    20:00 +34°C° 0 mm 2 mps 742 mmHg 35%
    21:00 +32°C° 0 mm 2 mps 742 mmHg 38%
    22:00 +32°C° 0 mm 2 mps 742 mmHg 42%
    23:00 +31°C° 0 mm 2 mps 742 mmHg 45%

    Tomorrow, 22 September, Saturday

    Time Temperature Precipitation Wind Pressure Humidity
    00:00 +31°C° 0 mm 2 mps 742 mmHg 46%
    01:00 +31°C° 0 mm 2 mps 742 mmHg 46%
    02:00 +30°C° 0 mm 2 mps 742 mmHg 47%
    03:00 +30°C° 0 mm 2 mps 742 mmHg 49%
    04:00 +30°C° 0 mm 2 mps 742 mmHg 52%
    05:00 +30°C° 0 mm 2 mps 742 mmHg 55%
    06:00 +30°C° 0 mm 2 mps 742 mmHg 55%
    07:00 +31°C° 0 mm 2 mps 743 mmHg 56%
    08:00 +32°C° 0 mm 2 mps 743 mmHg 56%
    09:00 +33°C° 0 mm 3 mps 743 mmHg 55%
    10:00 +34°C° 0 mm 3 mps 743 mmHg 55%
    11:00 +35°C° 0 mm 4 mps 743 mmHg 54%
    12:00 +34°C° 0 mm 5 mps 743 mmHg 56%
    13:00 +34°C° 0 mm 5 mps 742 mmHg 57%
    14:00 +33°C° 0 mm 6 mps 741 mmHg 59%
    15:00 +33°C° 0.1 mm 6 mps 741 mmHg 60%
    16:00 +33°C° 0.1 mm 6 mps 741 mmHg 60%
    17:00 +33°C° 0.1 mm 6 mps 741 mmHg 60%
    18:00 +33°C° 0.9 mm 5 mps 741 mmHg 63%
    19:00 +32°C° 0.9 mm 5 mps 742 mmHg 65%
    20:00 +30°C° 0.9 mm 5 mps 742 mmHg 68%
    21:00 +30°C° 0.5 mm 5 mps 742 mmHg 70%
    22:00 +30°C° 0.5 mm 5 mps 743 mmHg 71%
    23:00 +29°C° 0.5 mm 4 mps 743 mmHg 73%

    Day after tomorrow, 23 September, Sunday

    Time Temperature Precipitation Wind Pressure Humidity
    00:00 +29°C° 0.4 mm 4 mps 742 mmHg 75%
    01:00 +28°C° 0.4 mm 4 mps 742 mmHg 77%
    02:00 +28°C° 0.4 mm 3 mps 742 mmHg 78%
    03:00 +28°C° 0.7 mm 3 mps 742 mmHg 79%
    04:00 +28°C° 0.7 mm 3 mps 742 mmHg 81%
    05:00 +27°C° 0.7 mm 3 mps 742 mmHg 82%
    06:00 +28°C° 0.7 mm 3 mps 742 mmHg 80%
    07:00 +28°C° 0.7 mm 3 mps 743 mmHg 79%
    08:00 +28°C° 0.7 mm 3 mps 743 mmHg 78%
    09:00 +30°C° 0.4 mm 3 mps 743 mmHg 73%
    10:00 +32°C° 0.4 mm 4 mps 743 mmHg 68%
    11:00 +33°C° 0.4 mm 4 mps 743 mmHg 64%
    12:00 +34°C° 1.5 mm 4 mps 743 mmHg 62%
    13:00 +34°C° 1.5 mm 4 mps 742 mmHg 60%
    14:00 +35°C° 1.5 mm 4 mps 742 mmHg 59%
    15:00 +34°C° 1.5 mm 3 mps 742 mmHg 61%
    16:00 +34°C° 1.5 mm 3 mps 742 mmHg 62%
    17:00 +34°C° 1.5 mm 2 mps 741 mmHg 64%
    18:00 +32°C° 1.3 mm 2 mps 742 mmHg 67%
    19:00 +31°C° 1.3 mm 1 mps 743 mmHg 69%
    20:00 +31°C° 1.3 mm 1 mps 743 mmHg 72%
    21:00 +30°C° 1.1 mm 1 mps 743 mmHg 74%
    22:00 +30°C° 1.1 mm 2 mps 743 mmHg 77%
    23:00 +29°C° 1.1 mm 2 mps 744 mmHg 79%

    24 September, Monday

    Time Temperature Precipitation Wind Pressure Humidity
    00:00 +29°C° 1 mm 3 mps 743 mmHg 80%
    01:00 +29°C° 1 mm 3 mps 743 mmHg 81%
    02:00 +28°C° 1 mm 4 mps 742 mmHg 83%
    03:00 +28°C° 1.2 mm 3 mps 743 mmHg 83%
    04:00 +28°C° 1.2 mm 3 mps 743 mmHg 83%
    05:00 +28°C° 1.2 mm 3 mps 743 mmHg 84%
    06:00 +28°C° 2.2 mm 4 mps 743 mmHg 83%
    07:00 +29°C° 2.2 mm 4 mps 744 mmHg 82%
    08:00 +29°C° 2.2 mm 4 mps 744 mmHg 80%
    09:00 +29°C° 2.2 mm 5 mps 744 mmHg 79%
    10:00 +29°C° 2.2 mm 5 mps 745 mmHg 78%
    11:00 +30°C° 2.2 mm 5 mps 745 mmHg 77%
    12:00 +30°C° 2.9 mm 5 mps 744 mmHg 78%
    13:00 +30°C° 2.9 mm 4 mps 744 mmHg 78%
    14:00 +29°C° 2.9 mm 4 mps 743 mmHg 79%
    15:00 +29°C° 1.2 mm 4 mps 743 mmHg 79%
    16:00 +29°C° 1.2 mm 3 mps 743 mmHg 79%
    17:00 +29°C° 1.2 mm 3 mps 743 mmHg 80%
    18:00 +29°C° 0.1 mm 2 mps 744 mmHg 81%
    19:00 +29°C° 0.1 mm 2 mps 744 mmHg 82%
    20:00 +28°C° 0.1 mm 2 mps 745 mmHg 83%
    21:00 +28°C° 0.1 mm 2 mps 745 mmHg 83%
    22:00 +28°C° 0.1 mm 3 mps 745 mmHg 84%
    23:00 +28°C° 0.1 mm 3 mps 745 mmHg 84%

    25 September, Tuesday

    Time Temperature Precipitation Wind Pressure Humidity
    00:00 +28°C° 0 mm 3 mps 745 mmHg 85%
    01:00 +28°C° 0 mm 3 mps 744 mmHg 85%
    02:00 +28°C° 0 mm 3 mps 744 mmHg 86%
    03:00 +28°C° 0 mm 3 mps 744 mmHg 87%
    04:00 +27°C° 0 mm 3 mps 744 mmHg 88%
    05:00 +27°C° 0 mm 3 mps 744 mmHg 88%
    06:00 +28°C° 0 mm 3 mps 745 mmHg 87%
    07:00 +28°C° 0 mm 3 mps 745 mmHg 85%
    08:00 +29°C° 0 mm 3 mps 746 mmHg 83%
    09:00 +30°C° 0 mm 3 mps 746 mmHg 77%
    10:00 +31°C° 0 mm 3 mps 746 mmHg 70%
    11:00 +33°C° 0 mm 3 mps 746 mmHg 64%
    12:00 +34°C° 0 mm 3 mps 745 mmHg 60%
    13:00 +35°C° 0 mm 3 mps 745 mmHg 55%
    14:00 +36°C° 0 mm 3 mps 744 mmHg 51%
    15:00 +36°C° 0 mm 3 mps 744 mmHg 51%
    16:00 +36°C° 0 mm 3 mps 743 mmHg 52%
    17:00 +36°C° 0 mm 3 mps 743 mmHg 53%
    18:00 +35°C° 0 mm 3 mps 743 mmHg 55%
    19:00 +34°C° 0 mm 3 mps 744 mmHg 58%
    20:00 +31°C° 0 mm 3 mps 744 mmHg 60%
    21:00 +31°C° 0 mm 3 mps 744 mmHg 62%
    22:00 +30°C° 0 mm 3 mps 744 mmHg 64%
    23:00 +30°C° 0 mm 3 mps 745 mmHg 66%

    26 September, Wednesday

    Time Temperature Precipitation Wind Pressure Humidity
    00:00 +29°C° 0 mm 3 mps 744 mmHg 70%
    01:00 +29°C° 0 mm 3 mps 744 mmHg 74%
    02:00 +29°C° 0 mm 2 mps 744 mmHg 77%
    03:00 +28°C° 0 mm 2 mps 744 mmHg 80%
    04:00 +28°C° 0 mm 2 mps 744 mmHg 82%
    05:00 +28°C° 0 mm 2 mps 744 mmHg 84%
    06:00 +28°C° 0 mm 2 mps 745 mmHg 81%
    07:00 +29°C° 0 mm 2 mps 745 mmHg 77%
    08:00 +30°C° 0 mm 2 mps 746 mmHg 74%
    09:00 +31°C° 0 mm 3 mps 746 mmHg 66%
    10:00 +34°C° 0 mm 3 mps 746 mmHg 58%
    11:00 +35°C° 0 mm 3 mps 746 mmHg 50%
    12:00 +36°C° 0 mm 3 mps 745 mmHg 46%
    13:00 +37°C° 0 mm 3 mps 744 mmHg 43%
    14:00 +38°C° 0 mm 4 mps 744 mmHg 39%
    15:00 +38°C° 0 mm 3 mps 744 mmHg 40%
    16:00 +37°C° 0 mm 3 mps 744 mmHg 41%
    17:00 +37°C° 0 mm 3 mps 743 mmHg 42%
    18:00 +35°C° 0 mm 2 mps 744 mmHg 44%
    19:00 +34°C° 0 mm 2 mps 744 mmHg 47%
    20:00 +31°C° 0 mm 2 mps 745 mmHg 49%
    21:00 +31°C° 0 mm 1 mps 745 mmHg 50%
    22:00 +31°C° 0 mm 1 mps 745 mmHg 50%
    23:00 +30°C° 0 mm 1 mps 745 mmHg 51%
    Show more